Tracking 30696 objects as of 15-Jun-2025
HD Live streaming from Space Station
objects crossing your sky now

STARLINK-6252

Track STARLINK-6252 now!
10-day predictions
STARLINK-6252 is classified as:


NORAD ID: 56555
Int'l Code: 2023-065BE
Perigee: 565.2 km
Apogee: 567.2 km
Inclination: 43.0 °
Period: 95.8 minutes
Semi major axis: 6937 km
RCS: Unknown
Launch date: May 14, 2023
Source: United States (US)
Launch site: AIR FORCE EASTERN TEST RANGE (AFETR)
Your satellite tracking list
Your tracking list is empty




NASA's NSSDC Master Catalog

Two Line Element Set (TLE):
1 56555U 23065BE  25165.53700058 -.00000458  00000-0 -18857-4 0  9991
2 56555  43.0036 239.9038 0001420 269.5698  90.4982 15.02531236115366
Source of the keplerian elements: AFSPC